#timestamp,LO_Frequency,Hit 
1502852415.4,286046998.5,N
1502852435.2,286047001.0,N
1502852455.0,286047001.2,N
1502852455.9,286047001.2,N
1502852475.8,286046998.6,N
1502852495.6,286046998.4,N
1502852515.4,286046996.7,N
1502852535.3,286046996.6,N
1502852555.1,286046999.4,N
1502852556.0,286046999.4,N
1502852575.8,286047000.9,N
1502852595.7,286046998.1,N
1502852615.5,286046999.4,N
1502852635.3,286047000.8,N
1502852655.2,286047000.0,N
1502852675.9,286047000.6,N
1502852695.7,286046999.1,N
1502852715.6,286046999.4,N
1502852735.4,286046996.7,N
1502852755.2,286046996.8,N
1502852775.0,286046999.2,N
1502852776.0,286046999.2,N
1502852795.8,286046997.5,N
1502852815.6,286046996.9,N
1502852835.4,286046996.8,N
1502852855.3,286046997.0,N
1502852875.1,286047000.9,N
1502852895.8,286047000.2,N
1502852915.7,286047001.1,N
1502852935.5,286047000.3,N
1502852955.3,286046999.8,N
1502852975.2,286047000.1,N
1502852995.9,286047002.0,N
1502853015.7,286047001.8,N
1502853035.6,286047001.8,N
1502853055.4,286047002.7,N
1502853075.2,286047001.4,N
1502853095.0,286047001.7,N
1502853096.0,286047001.7,N
1502853115.8,286047001.4,N
1502853135.6,286047003.0,N
1502853155.4,286047003.1,N
1502853175.3,286047002.9,N
1502853195.1,286047005.4,N
1502853215.8,286047005.1,N
1502853235.7,286047005.5,N
1502853255.5,286047007.2,N
1502853275.3,286047007.0,N
1502853295.2,286047007.3,N
1502853315.9,286047006.6,N
1502853335.7,286047006.4,N
1502853355.6,286047004.8,N
1502853375.4,286047004.7,N
1502853395.2,286047003.2,N
1502853415.1,286047003.9,N
1502853416.0,286047003.9,N
1502853435.8,286047004.1,N
1502853455.6,286047005.9,N
1502853475.4,286047005.6,N
1502853495.3,286047004.1,N
1502853515.1,286047003.5,N
1502853535.8,286047005.8,N
1502853555.7,286047005.2,N
1502853575.5,286047005.9,P
1502853595.3,286047002.5,N
1502853615.2,286046999.8,N
1502853635.0,286047002.5,N
1502853635.9,286047002.5,N
1502853655.7,286047000.5,N
1502853675.6,286046998.3,N
1502853695.4,286046999.8,N
1502853715.2,286047001.5,N
1502853735.1,286047004.0,N
1502853736.0,286047004.0,N
1502853755.8,286047003.6,N
1502853775.6,286047007.4,P
1502853795.5,286047004.7,N
1502853815.3,286047003.8,N
1502853835.1,286047005.4,N
1502853855.9,286047003.4,N
1502853875.7,286047007.0,P
1502853895.5,286047004.2,P
1502853915.4,286047004.7,P
1502853935.2,286047005.5,P
1502853955.0,286046997.0,P
1502853955.9,286046997.0,N
1502853975.8,286046997.3,N
1502853995.6,286046996.7,N
1502854015.4,286046998.1,N
1502854035.3,286046999.4,N
1502854055.1,286047001.1,N
1502854075.8,286047001.2,N
1502854095.7,286047004.4,N
1502854115.5,286047001.8,N
1502854135.3,286047002.2,N
1502854155.2,286046999.8,N
1502854175.9,286047001.7,N
1502854195.7,286047000.0,N
1502854215.6,286046998.5,N
1502854235.4,286047000.7,N
1502854255.2,286046999.6,N
1502854275.0,286046998.0,N
1502854275.9,286046998.0,N
1502854295.8,286046996.0,N
1502854315.6,286046996.3,N
1502854335.4,286046994.1,N
1502854355.3,286046992.0,N
1502854375.1,286046992.0,N
1502854376.0,286046992.0,N
1502854395.8,286046994.3,N
1502854415.7,286046993.6,N
1502854435.5,286046994.4,N
1502854455.3,286046991.9,N
1502854475.2,286046992.1,N
1502854495.9,286046993.9,N
1502854515.7,286046996.4,N
1502854535.5,286046995.0,N
1502854555.4,286046994.9,N
1502854575.2,286046997.6,N
1502854595.0,286046995.7,N
1502854595.9,286046995.7,N
1502854615.8,286046993.5,N
1502854635.6,286046996.0,N
1502854655.4,286046997.9,N
1502854675.3,286046996.6,N
1502854695.1,286046996.8,N
1502854715.8,286046997.4,N
1502854735.7,286046997.7,N
1502854755.5,286046999.6,N
1502854775.3,286046996.6,N
1502854795.2,286046996.5,N
1502854815.9,286046996.6,N
1502854835.7,286046999.3,N
1502854855.6,286046996.7,N
1502854875.4,286046998.1,N
1502854895.2,286046998.4,N
1502854915.0,286047001.1,N
1502854915.9,286047001.1,N
1502854935.8,286047000.3,N
1502854955.6,286047002.8,N
1502854975.4,286047000.0,N
1502854995.3,286046999.8,N
1502855015.1,286047000.0,N
1502855035.8,286046998.2,N
1502855055.7,286046997.8,N
1502855075.5,286046997.9,N
1502855095.3,286046999.3,N
1502855115.2,286046998.4,N
1502855135.9,286046999.9,N
1502855155.7,286046998.1,N
1502855175.6,286046998.2,N
1502855195.4,286047000.7,N
1502855215.2,286046996.5,N
1502855235.0,286046999.4,N
1502855235.9,286046999.4,N
1502855255.8,286046998.1,N
1502855275.6,286046998.8,N
1502855295.4,286046998.7,N
1502855315.3,286047002.3,N
1502855335.1,286047000.3,N
1502855355.8,286047000.8,N
1502855375.7,286047001.1,N
1502855395.5,286047000.4,N
1502855415.3,286047000.2,N
1502855435.2,286047001.4,N
1502855455.9,286047002.4,N
1502855475.7,286047000.9,N
1502855495.6,286047000.4,N
1502855515.4,286046999.8,N
1502855535.2,286047001.9,N
1502855555.0,286047001.5,N
1502855556.0,286047001.5,N
1502855575.8,286047000.3,N
1502855595.6,286047002.3,N
1502855615.4,286047003.7,N
1502855635.3,286047004.3,N
1502855655.1,286047004.2,N
1502855675.8,286047003.6,N
1502855695.7,286047004.2,N
1502855715.5,286047003.9,N
1502855735.3,286047003.7,N
1502855755.2,286047004.3,N
1502855775.9,286047003.2,N
1502855795.7,286047002.9,N
1502855815.6,286047007.6,P
1502855835.4,286047003.1,N
1502855855.2,286047004.1,N
1502855875.1,286047001.4,N
1502855876.0,286047001.4,N
1502855895.8,286047001.8,N
1502855915.6,286047005.4,N
1502855935.5,286047005.2,N
1502855955.3,286047004.3,N
1502855975.1,286047001.7,N
1502855995.9,286047002.1,N
